Weather History for Debrecen, Hungary

Change the Weather History Date:

Sunday, December 29, 2013

  Actual Average Record
Temperature  
Mean Temperature 39 °F -  
Max Temperature 50 °F 33 °F - ()
Min Temperature 28 °F 22 °F - ()
Degree Days  
Heating Degree Days 26    
Moisture  
Dew Point 34 °F    
Average Humidity 80    
Maximum Humidity 100    
Minimum Humidity 48    
Precipitation  
Precipitation 0.00 in 0.05 in - ()
Sea Level Pressure  
Sea Level Pressure 30.09 in    
Wind  
Wind Speed 4 mph ()    
Max Wind Speed 12 mph    
Max Gust Speed -    
Visibility 3.8 miles    
Events Fog    
T = Trace of Precipitation, MM = Missing Value Source: Averaged Metar Reports

Daily Weather History Graph

Daily Weather History Graph

Search for Another Location

Airport:

Trip Planner

Search our weather history database for the weather conditions in past years. The results will help you decide how hot, cold, wet, or windy it might be!

Date:

Astronomy

Dec. 29, 2013 Rise Set
Actual Time 7:21 AM CET 3:50 PM CET
Civil Twilight 6:45 AM CET 4:26 PM CET
Nautical Twilight 6:06 AM CET 5:05 PM CET
Astronomical Twilight 5:28 AM CET 5:42 PM CET
Moon 3:37 AM CET (12/29) 1:18 PM CET (12/29)
Length of Visible Light 9h 40m
Length of Day
8h 29m
Waning Crescent, 13% of the Moon is Illuminated
Dec 29
Waning Crescent
Jan 1
New
Jan 8
First Quarter
Jan 16
Full
Jan 24
Last Quarter

Hourly Weather History & Observations

Time (CET) Temp. Windchill Dew Point Humidity Pressure Visibility Wind Dir Wind Speed Gust Speed Precip Events Conditions
12:00 AM 37 °F - 36 °F 92% 30.04 in - ENE 4.5 mph - -  
1:00 AM 37 °F - 36 °F 92% 30.03 in - NE 4.5 mph - -  
2:00 AM 37 °F - 35 °F 92% 30.04 in - NE 4.5 mph - -  
3:00 AM 34 °F - 33 °F 95% 30.04 in - East 2.2 mph - -  
4:00 AM 34 °F - 33 °F 92% 30.04 in - ENE 2.2 mph - -  
5:00 AM 34 °F - 33 °F 93% 30.04 in - NE 2.2 mph - -  
5:15 AM 33.8 °F - 32.0 °F 93% 30.04 in 5.0 mi NE 2.3 mph - N/A   Unknown
5:45 AM 32.0 °F - 30.2 °F 93% 30.04 in 4.3 mi ENE 2.3 mph - N/A   Unknown
6:00 AM 31 °F - 30 °F 93% 30.06 in 4 mi ENE 2.2 mph - -   Partly Cloudy
6:00 AM - - - N/A% - - South 6.9 mph - N/A   Clear
6:15 AM 30.2 °F - 30.2 °F 100% 30.04 in 4.3 mi East 2.3 mph - N/A   Unknown
6:45 AM 32.0 °F - 30.2 °F 93% 30.04 in 3.7 mi East 2.3 mph - N/A   Unknown
6:53 AM 30.2 °F - 28.4 °F 93% 30.06 in 1.7 mi ESE 2.3 mph - N/A Fog Fog
7:00 AM 32 °F - 31 °F 92% 30.06 in 4 mi East 2.2 mph - -   Partly Cloudy
7:00 AM - - - N/A% - - South 6.9 mph - N/A   Clear
7:15 AM 28.4 °F 24.6 °F 28.4 °F 100% 30.04 in 1.1 mi SE 3.5 mph - N/A Fog Fog
7:45 AM 28.4 °F - 28.4 °F 100% 30.06 in 1.7 mi SSE 2.3 mph - N/A   Scattered Clouds
7:49 AM 30.2 °F - 28.4 °F 93% 30.09 in 2.2 mi SE 2.3 mph - N/A   Scattered Clouds
8:00 AM 29 °F - 28 °F 93% 30.08 in 2 mi SSE 2.2 mph - -   Mist
8:15 AM 32.0 °F 28.7 °F 30.2 °F 93% 30.06 in - SE 3.5 mph - N/A   Scattered Clouds
8:45 AM 33.8 °F 28.6 °F 33.8 °F 100% 30.06 in 2.2 mi SSE 5.8 mph - N/A   Scattered Clouds
9:00 AM 34 °F - 33 °F 94% 30.09 in 2 mi SSE 4.5 mph - -   Mist
9:02 AM - - - N/A% - 1.9 mi Variable 3.5 mph - N/A   Mist
9:15 AM 39.2 °F 35.9 °F 37.4 °F 93% 30.09 in - SSE 4.6 mph - N/A   Scattered Clouds
9:45 AM 41.0 °F 37.1 °F 37.4 °F 87% 30.09 in 2.2 mi South 5.8 mph - N/A   Scattered Clouds
10:00 AM 41 °F - 37 °F 80% 30.10 in 2 mi South 4.5 mph - -   Mist
10:09 AM 42.8 °F 37.0 °F 35.6 °F 76% 30.09 in 3.7 mi South 10.4 mph - N/A   Scattered Clouds
10:15 AM 42.8 °F 37.0 °F 35.6 °F 76% 30.09 in 3.7 mi South 10.4 mph - N/A   Scattered Clouds
10:45 AM 44.6 °F 38.8 °F 37.4 °F 76% 30.09 in 3.7 mi South 11.5 mph - N/A   Scattered Clouds
11:00 AM 45 °F - 36 °F 63% 30.09 in 4 mi South 11.2 mph - -   Partly Cloudy
11:15 AM 46.4 °F 41.1 °F 35.6 °F 66% 30.09 in 3.7 mi SSW 11.5 mph - N/A   Scattered Clouds
11:45 AM 48.2 °F - 35.6 °F 62% 30.06 in 5.0 mi SSW 9.2 mph - N/A   Scattered Clouds
12:00 PM 48 °F - 36 °F 53% 30.08 in 5 mi SSW 8.9 mph - -   Partly Cloudy
12:00 PM - - - N/A% - - SSW 8.1 mph - N/A   Clear
12:15 PM 50.0 °F - 35.6 °F 58% 30.06 in 5.0 mi SSW 11.5 mph - N/A   Scattered Clouds
12:45 PM 50.0 °F - 35.6 °F 58% 30.06 in 5.0 mi SSW 9.2 mph - N/A   Scattered Clouds
1:00 PM 50 °F - 36 °F 48% 30.08 in 5 mi SSW 8.9 mph - -   Partly Cloudy
1:15 PM 50.0 °F - 37.4 °F 62% 30.06 in 5.0 mi South 8.1 mph - N/A   Mostly Cloudy
1:45 PM 50.0 °F - 37.4 °F 62% 30.06 in - South 6.9 mph - N/A   Clear
2:00 PM 50 °F - 37 °F 49% 30.08 in 6 mi South 6.7 mph - -   Partly Cloudy
2:15 PM 50.0 °F - 37.4 °F 62% 30.09 in - SSW 5.8 mph - N/A   Clear
2:45 PM 50.0 °F - 37.4 °F 62% 30.09 in - South 4.6 mph - N/A   Clear
3:00 PM 51 °F - 37 °F 48% 30.10 in 9 mi South 4.5 mph - -   Partly Cloudy
3:15 PM 48.2 °F - 37.4 °F 66% 30.09 in - South 4.6 mph - N/A   Clear
3:45 PM 46.4 °F 43.5 °F 37.4 °F 71% 30.09 in - South 5.8 mph - N/A   Clear
4:00 PM 47 °F - 37 °F 57% 30.11 in 6 mi South 6.7 mph - -   Partly Cloudy
4:15 PM 44.6 °F 41.4 °F 35.6 °F 71% 30.09 in 4.3 mi South 5.8 mph - N/A   Overcast
4:45 PM 41.0 °F 36.4 °F 33.8 °F 76% 30.12 in 4.3 mi SSW 6.9 mph - N/A   Overcast
5:00 PM 40 °F - 35 °F 74% 30.13 in 4 mi SSW 6.7 mph - -   Partly Cloudy
5:00 PM - - - N/A% - - North - - N/A   Unknown
6:00 PM 41 °F - 37 °F 80% 30.14 in - WNW 2.2 mph - -  
7:00 PM 40 °F - 37 °F 84% 30.16 in - NW 2.2 mph - -  
8:00 PM 36 °F - 33 °F 84% 30.17 in - Calm Calm - -  
9:00 PM 35 °F - 33 °F 90% 30.18 in - NW 2.2 mph - -  
10:00 PM 34 °F - 32 °F 88% 30.21 in - WNW 6.7 mph - -  
10:42 PM 32.0 °F - 32.0 °F 100% 30.21 in - North - - N/A   Unknown
11:00 PM 33 °F - 31 °F 91% 30.22 in - NW 4.5 mph - -